www.pogodaiklimat.ru

ПОГОДА в Хэнкоке, MI

  • Прогноз погоды в Хэнкоке
  • Монитор погоды в Хэнкоке
  • Климат в Хэнкоке

АРХИВ ПОГОДЫ в Хэнкоке

Время (UTC), дата Ветер
(напр.,м/с)
 
Видим.   Явления Облачность Т
(С)
Тd
(С)
f
(%)
Тe
(С)
Тes
(С)
Комфортность

P
(гПа)

Po
(гПа)
Тmin
(С)
Tmax
(С)
R
(мм)
SD
(см)
20:53 18.08 З  10
{15} 
16 км    10/10 360 м  +17.2  +13.3  78  +15  +15    1005.8  966.8         
21:51 18.08 З  10
{14} 
16 км    2/2 870 м  +18.0  +12.0  68  +17  +17      967.7         
21:53 18.08 З  9
{14} 
16 км    2/2 870 м  +18.3  +11.7  65  +17  +17    1006.9  967.7         
22:53 18.08 З  16 км    ясно  +17.8  +11.7  67  +17  +18    1007.1  967.7  +17.2  +20.6  1.5   
23:53 18.08 З  16 км    ясно  +16.7  +11.7  72  +16  +16    1007.0  967.7         
00:53 19.08 З  16 км    ясно  +15.6  +12.2  80  +15  +15    1008.0  968.7         
01:53 19.08 З  16 км    ясно  +16.1  +12.2  78  +15  +15    1008.7  969.4         
02:53 19.08 З  16 км    ясно  +16.1  +11.1  72  +15  +15    1008.9  969.7         
03:53 19.08 З  16 км    ясно  +15.6  +9.4  67  +15  +15    1009.5  970.3         
04:53 19.08 З  16 км    ясно  +14.4  +10.0  75  +13  +13    1010.0  970.7  +14.4  +17.8     
05:53 19.08 З  16 км    ясно  +14.4  +10.6  78  +13  +13    1010.5  971.0         
06:53 19.08 З  16 км    ясно  +14.4  +11.1  81  +13  +13    1010.9  971.6         
07:53 19.08 З  16 км    ясно  +15.6  +11.7  78  +14  +14    1011.3  972.0         
08:53 19.08 З  16 км    ясно  +14.4  +11.7  84  +13  +13    1011.8  972.3         
09:53 19.08 З  16 км    ясно  +14.4  +11.1  81  +13  +13    1012.4  972.9         
10:53 19.08 З  16 км    ясно  +15.6  +11.1  75  +14  +14    1013.0  973.6  +13.9  +15.6     
11:53 19.08 З  16 км    ясно  +17.8  +11.7  67  +17  +17    1013.5  973.9         
12:53 19.08 З  16 км    ясно  +18.9  +11.1  61  +19  +20    1013.7  974.2         
13:53 19.08 З  16 км    ясно  +20.6  +11.1  54  +22  +23  комфорт  1013.6  974.2         
14:53 19.08 З  16 км    ясно  +21.7  +10.0  47  +23  +26  комфорт  1014.0  974.6         
15:53 19.08 ЮЗ  6
{11} 
16 км    ясно  +22.8  +8.9  41  +24  +27  комфорт  1014.0  974.6         
16:53 19.08 З  9
{13} 
16 км    ясно  +23.3  +8.3  38  +24  +25  комфорт  1014.1  974.6  +15.6  +23.9     
17:53 19.08 З  16 км    ясно  +23.9  +9.4  40  +25  +27  комфорт  1014.0  974.6         
18:53 19.08 З  16 км    ясно  +24.4  +10.0  40  +25  +31  комфорт  1013.4  974.2         
19:53 19.08 З  16 км    ясно  +24.4  +11.1  43  +26  +33  жарко  1013.2  973.9         
20:53 19.08 ЮЗ  16 км    ясно  +25.0  +11.1  42  +26  +32  жарко  1012.9  973.6         
21:53 19.08 ЮЗ  16 км    ясно  +25.0  +8.9  36  +26  +27  жарко  1012.5  973.3         
22:53 19.08 ЮЗ  16 км    ясно  +23.9  +8.9  38  +25  +26  комфорт  1012.6  973.3  +23.3  +25.6     
23:53 19.08 ЮЗ  16 км    ясно  +21.7  +9.4  45  +23  +24  комфорт  1012.6  973.3         
00:53 20.08 ЮЗ  16 км    ясно  +20.6  +10.0  51  +22  +22  комфорт  1013.1  973.6         
01:53 20.08 ЮЗ  16 км    ясно  +20.0  +10.6  55  +21  +21  комфорт  1013.2  973.9         
02:53 20.08 З  6
{11} 
16 км    ясно  +21.1  +11.1  53  +23  +23  комфорт  1013.4  974.2         
03:53 20.08 З  6
{10} 
16 км    ясно  +21.1  +11.7  55  +23  +23  комфорт  1013.6  974.6         
04:53 20.08 З  16 км    ясно  +20.6  +11.7  57  +22  +22  комфорт  1013.8  974.6  +20.0  +23.9     
05:53 20.08 З  7
{12} 
16 км    ясно  +20.6  +12.2  59  +22  +22  комфорт  1013.8  974.6         
06:53 20.08 З  16 км    ясно  +20.0  +12.2  61  +21  +21  комфорт  1014.2  974.9         
07:53 20.08 З  16 км    ясно  +19.4  +12.8  66  +21  +21  комфорт  1014.3  975.2         
08:53 20.08 З  16 км    ясно  +18.9  +12.8  68  +20  +20    1014.0  974.9         
09:53 20.08 ЮЗ  16 км    ясно  +17.8  +12.8  73  +18  +18    1012.7  973.6         
10:53 20.08 ЮЗ  16 км    ясно  +16.7  +13.3  80  +17  +17    1012.7  973.6  +16.1  +20.6     
11:53 20.08 Ю  16 км    ясно  +18.9  +14.4  75  +21  +21  комфорт  1012.6  973.3         
12:53 20.08 ЮЗ  16 км    ясно  +20.0  +14.4  70  +23  +25  комфорт  1012.6  973.3         
13:53 20.08 СЗ  16 км    ясно  +23.3  +16.7  66  +28  +31  душно  1014.1  974.9         
14:53 20.08 З  16 км    2/0 2100 м
[средняя] 
+22.8  +15.0  61  +27  +27  душно  1015.1  975.9         
15:53 20.08 З  16 км    ясно  +20.6  +15.6  73  +23  +26  комфорт  1014.4  975.2         
16:53 20.08 З  14 км  слабый дождь  10/5 1110 м
[средняя] 
+20.0  +16.7  81  +23  +24  комфорт  1013.2  973.9  +16.7  +23.3  0.3   
17:53 20.08 нст  16 км    8/0 3000 м
[средняя] 
+21.7  +17.2  76  +26  +31  душно  1012.4  973.3         
18:53 20.08 ЮЗ  16 км    ясно  +23.3  +16.7  66  +28  +37  душно  1012.2  972.9         

 

Местоположение метеостанции Houghton County Memorial Airport: широта 47.1683 долгота -88.4889 высота над уровнем моря 334 м.

В архиве по умолчанию представлена погода в Хэнкоке за последние 1-2 суток. Обновление информации о фактической погоде в базе происходит ежечасно! Архивные данные за месяц целиком и за предыдущие месяцы Вы можете получить, выбрав интересующий диапазон дат из раскрывающегося списка и нажав кнопку "Ввод!".

Внимание! Архив погоды МЕТАР в базе сайта хранится не более 60 дней. Нет смысла пытаться выбрать более раннюю дату.

Внимание! Время в таблицах - всемирное. Для получения местного времени необходимо прибавить поправку, которая в Хэнкоке равна -5 ч.

Ветер - указаны скорость ветра в м/с и направление, откуда дует ветер: С - северный, СВ - северо-восточный, В - восточный, ЮВ - юго-восточный, Ю - южный, ЮЗ - юго-западный, З - западный, СЗ - северо-западный.
Видимость - горизонтальная дальность видимости в метрах или километрах. При видимости от 1 до 10 км при отсутствии осадков обычно наблюдается дымка, при ухудшении видимости до 1 км и менее - туман. В сухую погоду видимость может ухудшаться дымом, пылью или мглою.
Атмосферные явления - указаны явления, наблюдавшиеся в указанный момент времени.
Облачность - указаны через наклонную черту верхняя и нижняя облачность в баллах и высота нижней границы облаков в метрах. Внимание: облачность, как и прочие метеорологические величины в США измеряются автоматическими метеостанциями. Указанные значения в баллах носят условный характер и показывают процент времени, в течение которого, в среднем, лазерный луч высотомера отражался от облаков обратно.
T - Температура воздуха - температура, измеренная на высоте 2 м над землей.
Td - Температура точки росы - температура, при понижении до которой содержащийся в воздухе водяной пар достигнет насыщения.
f - Относительная влажность воздуха - влажноcть воздуха, измеренная на высоте 2 м над землей.
Te - Эффективная температура - температура, которую ощущает одетый по сезону человек в тени. Характеристика душности погоды. При расчете учитывается влияние влажности воздуха и скорости ветра на теплоощущения человека.
Tes - Эффективная температура на солнце - температура, которую ощущает человек, с поправкой на солнечный нагрев. Характеристика знойности погоды. Зависит от высоты солнца над горизонтом, облачности и скорости ветра. Ночью, в пасмурную погоду, а также при ветре 12 м/с и более поправка равна нулю.
P - Атмосферное давление - приведенное к уровню моря атмосферное давление.
Po - Атмосферное давление - измеренное на уровне метеостанции атмосферное давление.
Tmin - Минимальная температура - минимум температуры воздуха на высоте 2 м над землей.
Tmax - Максимальная температура - максимум температуры воздуха на высоте 2 м над землей.
R - Количество осадков - Количество выпавших осадков за 3 или 6 часов, мм.
SD - Снежный покров - Высота снежного покрова, см.